Youngstown, OH

12:26 PM EDT on July 28, 2017 (GMT -0400)
Youngstown-Warren Regional

Weather History for KYNG - June, 2013

Change the Weather History Date:

Wednesday, June 26, 2013

  Actual Average Record
Temperature  
Mean Temperature 74 °F 69 °F  
Max Temperature 82 °F 80 °F 99 °F (1952)
Min Temperature 65 °F 58 °F 46 °F (1979)
Degree Days  
Heating Degree Days 0 1  
Month to date heating degree days 56 65  
Since 1 June heating degree days 56 65  
Since 1 July heating degree days 6156 6345  
Cooling Degree Days 9 5  
Month to date cooling degree days 97 88  
Year to date cooling degree days 185 127  
Since 1 June cooling degree days 97 88  
Growing Degree Days 24 (Base 50)    
Moisture  
Dew Point 66 °F    
Average Humidity 78    
Maximum Humidity 93    
Minimum Humidity 62    
Precipitation  
Precipitation 0.19 in 0.14 in 1.29 in (1953)
Month to date precipitation 3.39 3.36  
Year to date precipitation 15.16 18.15  
Snow  
Snow 0.00 in 0.00 in - ()
Month to date snowfall T 0.0  
Since 1 June snowfall T 0.0  
Since 1 July snowfall 80.9 62.7  
Snow Depth 0.00 in    
Sea Level Pressure  
Sea Level Pressure 29.88 in    
Wind  
Wind Speed 6 mph (SSW)    
Max Wind Speed 15 mph    
Max Gust Speed 21 mph    
Visibility 8 miles    
Events Rain , Thunderstorm    
T = Trace of Precipitation, MM = Missing Value Source: NWS Daily Summary

Daily Weather History Graph

Daily Weather History Graph

Search for Another Location

Airport or City:

Trip Planner

Search our weather history database for the weather conditions in past years. The results will help you decide how hot, cold, wet, or windy it might be!

Date:

Astronomy

Jun. 26, 2013 Rise Set
Actual Time 5:51 AM EDT 8:59 PM EDT
Civil Twilight 5:17 AM EDT 9:33 PM EDT
Nautical Twilight 4:34 AM EDT 10:16 PM EDT
Astronomical Twilight 3:42 AM EDT 11:08 PM EDT
Moon 11:19 PM EDT (6/26) 9:43 AM EDT (6/26)
Length of Visible Light 16h 16m
Length of Day
15h 08m
Waning Gibbous, 85% of the Moon is Illuminated
Jun 26
Waning Gibbous
Jun 30
Last Quarter
Jul 8
New
Jul 15
First Quarter
Jul 22
Full

Hourly Weather History & Observations

Time (EDT) Temp. Heat Index Dew Point Humidity Pressure Visibility Wind Dir Wind Speed Gust Speed Precip Events Conditions
12:51 AM 66.0 °F - 64.0 °F 93% 29.93 in 7.0 mi SW 9.2 mph - 0.01 in Rain , Thunderstorm Light Thunderstorms and Rain
1:51 AM 66.0 °F - 64.9 °F 96% 29.93 in 5.0 mi Calm Calm - 0.04 in Rain , Thunderstorm Light Thunderstorms and Rain
2:17 AM 66.2 °F - 64.4 °F 94% 29.91 in 6.0 mi SE 6.9 mph - 0.03 in Rain Light Rain
2:51 AM 66.0 °F - 64.9 °F 96% 29.88 in 7.0 mi South 8.1 mph - 0.03 in Rain Light Rain
3:05 AM 66.2 °F - 64.4 °F 94% 29.91 in 6.0 mi South 6.9 mph - 0.00 in Rain Light Rain
3:26 AM 66.2 °F - 64.4 °F 94% 29.93 in 5.0 mi SSW 9.2 mph - 0.00 in Rain Light Rain
3:51 AM 66.0 °F - 64.9 °F 96% 29.90 in 7.0 mi SSW 8.1 mph - 0.00 in Rain Light Rain
4:03 AM 66.2 °F - 64.4 °F 94% 29.92 in 7.0 mi SSW 9.2 mph - 0.00 in Rain Light Rain
4:07 AM 66.2 °F - 64.4 °F 94% 29.91 in 6.0 mi South 9.2 mph - 0.01 in Rain , Thunderstorm Light Thunderstorms and Rain
4:51 AM 66.9 °F - 64.9 °F 93% 29.91 in 7.0 mi SW 11.5 mph - 0.05 in Rain , Thunderstorm Light Thunderstorms and Rain
5:29 AM 66.2 °F - 64.4 °F 94% 29.91 in 9.0 mi South 3.5 mph - 0.06 in Rain Light Rain
5:51 AM 66.0 °F - 64.0 °F 93% 29.87 in 10.0 mi SSE 10.4 mph - 0.07 in Rain Light Rain
6:51 AM 66.0 °F - 64.0 °F 93% 29.86 in 10.0 mi South 4.6 mph - 0.00 in   Overcast
7:17 AM 66.2 °F - 64.4 °F 94% 29.87 in 7.0 mi SW 4.6 mph - N/A   Overcast
7:43 AM 66.2 °F - 64.4 °F 94% 29.87 in 8.0 mi SSW 6.9 mph - N/A   Overcast
7:51 AM 66.9 °F - 64.9 °F 93% 29.86 in 9.0 mi SSW 8.1 mph - N/A   Mostly Cloudy
8:33 AM 68.0 °F - 66.2 °F 94% 29.91 in 10.0 mi SW 9.2 mph - N/A   Overcast
8:51 AM 68.0 °F - 66.0 °F 93% 29.89 in 10.0 mi SSW 9.2 mph - N/A   Overcast
9:27 AM 68.0 °F - 64.4 °F 88% 29.93 in 10.0 mi WSW 12.7 mph - N/A   Overcast
9:51 AM 68.0 °F - 66.0 °F 93% 29.91 in 7.0 mi WSW 9.2 mph - 0.00 in Rain Light Rain
10:12 AM 68.0 °F - 66.2 °F 94% 29.93 in 2.0 mi WSW 11.5 mph - 0.00 in Rain Light Rain
10:21 AM 68.0 °F - 66.2 °F 94% 29.92 in 7.0 mi SSW 8.1 mph - 0.01 in Rain Light Rain
10:51 AM 70.0 °F - 66.0 °F 87% 29.89 in 10.0 mi SSW 4.6 mph - 0.01 in   Overcast
11:51 AM 73.0 °F - 66.0 °F 79% 29.90 in 10.0 mi West 8.1 mph - N/A   Mostly Cloudy
12:51 PM 75.9 °F - 66.9 °F 74% 29.90 in 10.0 mi West 6.9 mph - N/A   Mostly Cloudy
1:28 PM 75.2 °F - 66.2 °F 73% 29.92 in 10.0 mi SSW 5.8 mph - N/A   Mostly Cloudy
1:51 PM 77.0 °F - 66.0 °F 69% 29.89 in 10.0 mi WSW 5.8 mph - N/A   Overcast
2:17 PM 78.8 °F - 66.2 °F 65% 29.90 in 10.0 mi SW 4.6 mph - N/A   Mostly Cloudy
2:51 PM 80.1 °F 82.3 °F 66.9 °F 64% 29.87 in 10.0 mi SSW 6.9 mph - N/A   Mostly Cloudy
3:51 PM 80.1 °F 82.1 °F 66.0 °F 62% 29.86 in 10.0 mi WSW 5.8 mph - N/A   Mostly Cloudy
4:51 PM 81.0 °F 83.8 °F 68.0 °F 65% 29.85 in 10.0 mi South 9.2 mph - N/A   Mostly Cloudy
5:51 PM 79.0 °F - 66.9 °F 66% 29.82 in 10.0 mi SSE 5.8 mph - N/A   Mostly Cloudy
6:51 PM 79.0 °F - 66.9 °F 66% 29.81 in 10.0 mi South 3.5 mph - N/A   Scattered Clouds
7:51 PM 79.0 °F - 66.9 °F 66% 29.82 in 10.0 mi South 3.5 mph - N/A   Scattered Clouds
8:51 PM 75.9 °F - 68.0 °F 76% 29.82 in 10.0 mi South 3.5 mph - N/A   Scattered Clouds
9:51 PM 73.9 °F - 66.9 °F 79% 29.82 in 10.0 mi SSE 4.6 mph - N/A   Scattered Clouds
10:51 PM 73.0 °F - 66.9 °F 81% 29.82 in 10.0 mi SSE 4.6 mph - N/A   Partly Cloudy
11:51 PM 70.0 °F - 66.9 °F 90% 29.81 in 10.0 mi SE 4.6 mph - N/A   Partly Cloudy